Time,TemperatureF,DewpointF,PressureIn,WindDirection,WindDirectionDegrees,WindSpeedMPH,WindSpeedGustMPH,Humidity,HourlyPrecipIn,Conditions,Clouds,dailyrainin,SoftwareType,DateUTC
2013-02-10 00:00:00,46.0,32.0,30.07,ESE,112,5.0,6.0,58,0.00,,,0.00,Rainwise IP-100,2013-02-10 06:00:00,
2013-02-10 00:05:00,46.0,32.0,30.07,East,90,2.0,6.0,58,0.00,,,0.00,Rainwise IP-100,2013-02-10 06:05:00,
2013-02-10 00:07:00,46.0,32.0,30.07,ESE,112,4.0,6.0,58,0.00,,,0.00,Rainwise IP-100,2013-02-10 06:07:00,
2013-02-10 00:12:00,46.0,32.0,30.07,ENE,67,7.0,7.0,57,0.00,,,0.00,Rainwise IP-100,2013-02-10 06:12:00,
2013-02-10 00:18:00,46.0,32.0,30.07,East,90,6.0,9.0,58,0.00,,,0.00,Rainwise IP-100,2013-02-10 06:18:00,
2013-02-10 00:23:00,46.0,32.0,30.06,East,90,4.0,6.0,59,0.00,,,0.00,Rainwise IP-100,2013-02-10 06:23:00,
2013-02-10 00:28:00,46.0,33.0,30.06,East,90,3.0,7.0,60,0.00,,,0.00,Rainwise IP-100,2013-02-10 06:28:00,
2013-02-10 00:33:00,46.0,33.0,30.05,East,90,4.0,5.0,60,0.00,,,0.00,Rainwise IP-100,2013-02-10 06:33:00,
2013-02-10 00:36:00,46.0,33.0,30.05,NE,45,2.0,5.0,62,0.00,,,0.00,Rainwise IP-100,2013-02-10 06:36:00,
2013-02-10 00:41:00,46.0,33.0,30.05,East,90,5.0,6.0,62,0.00,,,0.00,Rainwise IP-100,2013-02-10 06:41:00,
2013-02-10 00:46:00,46.0,33.0,30.05,ENE,67,3.0,6.0,60,0.00,,,0.00,Rainwise IP-100,2013-02-10 06:46:00,
2013-02-10 00:51:00,46.0,33.0,30.05,East,90,4.0,5.0,60,0.00,,,0.00,Rainwise IP-100,2013-02-10 06:51:00,
2013-02-10 00:53:00,46.0,33.0,30.05,ESE,112,2.0,6.0,61,0.00,,,0.00,Rainwise IP-100,2013-02-10 06:53:00,
2013-02-10 00:58:00,46.0,32.0,30.05,ESE,112,6.0,6.0,58,0.00,,,0.00,Rainwise IP-100,2013-02-10 06:58:00,
2013-02-10 01:03:00,46.0,33.0,30.05,ENE,67,2.0,6.0,60,0.00,,,0.00,Rainwise IP-100,2013-02-10 07:03:00,
2013-02-10 01:08:00,46.0,32.0,30.05,ESE,112,1.0,6.0,59,0.00,,,0.00,Rainwise IP-100,2013-02-10 07:08:00,
2013-02-10 01:13:00,46.0,33.0,30.05,East,90,3.0,6.0,60,0.00,,,0.00,Rainwise IP-100,2013-02-10 07:13:00,
2013-02-10 01:18:00,47.0,33.0,30.04,ESE,112,0.0,6.0,59,0.00,,,0.00,Rainwise IP-100,2013-02-10 07:18:00,
2013-02-10 01:23:00,47.0,33.0,30.04,SE,135,3.0,5.0,58,0.00,,,0.00,Rainwise IP-100,2013-02-10 07:23:00,
2013-02-10 01:28:00,47.0,33.0,30.04,ESE,112,0.0,4.0,58,0.00,,,0.00,Rainwise IP-100,2013-02-10 07:28:00,
2013-02-10 01:33:00,47.0,33.0,30.04,East,90,2.0,5.0,58,0.00,,,0.00,Rainwise IP-100,2013-02-10 07:33:00,
2013-02-10 01:38:00,47.0,33.0,30.05,East,90,2.0,4.0,58,0.00,,,0.00,Rainwise IP-100,2013-02-10 07:38:00,
2013-02-10 01:43:00,47.0,33.0,30.05,ESE,112,1.0,3.0,60,0.00,,,0.00,Rainwise IP-100,2013-02-10 07:43:00,
2013-02-10 01:48:00,47.0,35.0,30.05,East,90,3.0,4.0,61,0.00,,,0.00,Rainwise IP-100,2013-02-10 07:48:00,
2013-02-10 01:53:00,46.0,33.0,30.04,East,90,0.0,3.0,60,0.00,,,0.00,Rainwise IP-100,2013-02-10 07:53:00,
2013-02-10 01:58:00,47.0,33.0,30.04,SSE,157,2.0,3.0,59,0.00,,,0.00,Rainwise IP-100,2013-02-10 07:58:00,
2013-02-10 02:03:00,47.0,33.0,30.04,SE,135,0.0,4.0,58,0.00,,,0.00,Rainwise IP-100,2013-02-10 08:03:00,
2013-02-10 02:08:00,47.0,33.0,30.04,SE,135,0.0,3.0,58,0.00,,,0.00,Rainwise IP-100,2013-02-10 08:08:00,
2013-02-10 02:13:00,47.0,32.0,30.04,SE,135,1.0,5.0,57,0.00,,,0.00,Rainwise IP-100,2013-02-10 08:13:00,
2013-02-10 02:18:00,48.0,33.0,30.04,SSW,202,4.0,7.0,56,0.00,,,0.00,Rainwise IP-100,2013-02-10 08:18:00,
2013-02-10 02:23:00,48.0,33.0,30.04,SSE,157,6.0,9.0,56,0.00,,,0.00,Rainwise IP-100,2013-02-10 08:23:00,
2013-02-10 02:28:00,49.0,35.0,30.04,SSW,202,1.0,7.0,57,0.00,,,0.00,Rainwise IP-100,2013-02-10 08:28:00,
2013-02-10 02:33:00,50.0,33.0,30.04,South,180,6.0,17.0,54,0.00,,,0.00,Rainwise IP-100,2013-02-10 08:33:00,
2013-02-10 02:38:00,50.0,33.0,30.03,SSW,202,12.0,12.0,54,0.00,,,0.00,Rainwise IP-100,2013-02-10 08:38:00,
2013-02-10 02:43:00,50.0,33.0,30.03,SSW,202,6.0,14.0,54,0.00,,,0.00,Rainwise IP-100,2013-02-10 08:43:00,
2013-02-10 02:48:00,51.0,35.0,30.02,South,180,5.0,15.0,53,0.00,,,0.00,Rainwise IP-100,2013-02-10 08:48:00,
2013-02-10 02:53:00,51.0,35.0,30.02,SSW,202,7.0,14.0,53,0.00,,,0.00,Rainwise IP-100,2013-02-10 08:53:00,
2013-02-10 02:58:00,51.0,36.0,30.02,South,180,6.0,15.0,55,0.00,,,0.00,Rainwise IP-100,2013-02-10 08:58:00,
2013-02-10 03:03:00,51.0,36.0,30.02,SSE,157,8.0,14.0,54,0.00,,,0.00,Rainwise IP-100,2013-02-10 09:03:00,
2013-02-10 03:08:00,50.0,36.0,30.02,SE,135,9.0,12.0,59,0.00,,,0.00,Rainwise IP-100,2013-02-10 09:08:00,
2013-02-10 03:13:00,50.0,37.0,30.02,South,180,6.0,13.0,60,0.00,,,0.00,Rainwise IP-100,2013-02-10 09:13:00,
2013-02-10 03:18:00,50.0,37.0,30.02,South,180,6.0,12.0,60,0.00,,,0.00,Rainwise IP-100,2013-02-10 09:18:00,
2013-02-10 03:23:00,50.0,37.0,30.01,South,180,6.0,12.0,62,0.00,,,0.00,Rainwise IP-100,2013-02-10 09:23:00,
2013-02-10 03:28:00,49.0,37.0,30.01,South,180,7.0,9.0,64,0.00,,,0.00,Rainwise IP-100,2013-02-10 09:28:00,
2013-02-10 03:33:00,49.0,37.0,30.02,SSE,157,6.0,11.0,64,0.00,,,0.00,Rainwise IP-100,2013-02-10 09:33:00,
2013-02-10 03:38:00,49.0,37.0,30.02,SSW,202,7.0,11.0,64,0.00,,,0.00,Rainwise IP-100,2013-02-10 09:38:00,
2013-02-10 03:43:00,50.0,37.0,30.00,South,180,7.0,10.0,62,0.00,,,0.00,Rainwise IP-100,2013-02-10 09:43:00,
2013-02-10 03:48:00,50.0,38.0,30.00,South,180,6.0,9.0,64,0.00,,,0.00,Rainwise IP-100,2013-02-10 09:48:00,
2013-02-10 03:53:00,50.0,38.0,30.01,South,180,10.0,13.0,63,0.00,,,0.00,Rainwise IP-100,2013-02-10 09:53:00,
2013-02-10 03:58:00,51.0,39.0,30.01,SSE,157,8.0,11.0,62,0.00,,,0.00,Rainwise IP-100,2013-02-10 09:58:00,
2013-02-10 04:03:00,51.0,38.0,29.99,South,180,5.0,14.0,61,0.00,,,0.00,Rainwise IP-100,2013-02-10 10:03:00,
2013-02-10 04:08:00,50.0,38.0,29.99,SSE,157,6.0,10.0,63,0.00,,,0.00,Rainwise IP-100,2013-02-10 10:08:00,
2013-02-10 04:13:00,50.0,38.0,29.99,SSE,157,6.0,8.0,64,0.00,,,0.00,Rainwise IP-100,2013-02-10 10:13:00,
2013-02-10 04:18:00,49.0,38.0,29.99,SSW,202,6.0,7.0,67,0.00,,,0.00,Rainwise IP-100,2013-02-10 10:18:00,
2013-02-10 04:23:00,50.0,38.0,29.99,SE,135,8.0,8.0,64,0.00,,,0.00,Rainwise IP-100,2013-02-10 10:23:00,
2013-02-10 04:28:00,50.0,39.0,29.99,South,180,2.0,10.0,67,0.00,,,0.00,Rainwise IP-100,2013-02-10 10:28:00,
2013-02-10 04:33:00,50.0,39.0,29.99,SSE,157,6.0,10.0,66,0.00,,,0.00,Rainwise IP-100,2013-02-10 10:33:00,
2013-02-10 04:38:00,49.0,38.0,29.99,South,180,2.0,10.0,67,0.00,,,0.00,Rainwise IP-100,2013-02-10 10:38:00,
2013-02-10 04:43:00,49.0,39.0,30.00,SE,135,3.0,5.0,68,0.00,,,0.00,Rainwise IP-100,2013-02-10 10:43:00,
2013-02-10 04:48:00,49.0,40.0,30.00,SE,135,6.0,7.0,70,0.00,,,0.00,Rainwise IP-100,2013-02-10 10:48:00,
2013-02-10 04:53:00,49.0,40.0,30.00,SE,135,4.0,9.0,71,0.00,,,0.00,Rainwise IP-100,2013-02-10 10:53:00,
2013-02-10 04:58:00,48.0,39.0,30.00,South,180,2.0,6.0,72,0.00,,,0.00,Rainwise IP-100,2013-02-10 10:58:00,
2013-02-10 05:03:00,48.0,39.0,30.00,SSE,157,5.0,6.0,72,0.00,,,0.00,Rainwise IP-100,2013-02-10 11:03:00,
2013-02-10 05:08:00,48.0,40.0,30.00,South,180,5.0,8.0,73,0.00,,,0.00,Rainwise IP-100,2013-02-10 11:08:00,
2013-02-10 05:13:00,48.0,40.0,29.98,SSE,157,5.0,8.0,74,0.00,,,0.00,Rainwise IP-100,2013-02-10 11:13:00,
2013-02-10 05:18:00,48.0,40.0,29.98,South,180,9.0,9.0,74,0.00,,,0.00,Rainwise IP-100,2013-02-10 11:18:00,
2013-02-10 05:23:00,49.0,40.0,29.98,South,180,7.0,14.0,70,0.00,,,0.00,Rainwise IP-100,2013-02-10 11:23:00,
2013-02-10 05:28:00,49.0,39.0,29.98,SSE,157,12.0,17.0,69,0.00,,,0.00,Rainwise IP-100,2013-02-10 11:28:00,
2013-02-10 05:33:00,49.0,39.0,29.97,SSE,157,7.0,13.0,68,0.00,,,0.00,Rainwise IP-100,2013-02-10 11:33:00,
2013-02-10 05:38:00,49.0,39.0,29.97,South,180,9.0,10.0,69,0.00,,,0.00,Rainwise IP-100,2013-02-10 11:38:00,
2013-02-10 05:43:00,50.0,39.0,29.97,SSE,157,7.0,17.0,67,0.00,,,0.00,Rainwise IP-100,2013-02-10 11:43:00,
2013-02-10 05:48:00,50.0,38.0,29.97,SSW,202,6.0,13.0,65,0.00,,,0.00,Rainwise IP-100,2013-02-10 11:48:00,
2013-02-10 05:53:00,51.0,39.0,29.96,SSE,157,8.0,19.0,63,0.00,,,0.00,Rainwise IP-100,2013-02-10 11:53:00,
2013-02-10 05:58:00,51.0,39.0,29.96,South,180,10.0,15.0,63,0.00,,,0.00,Rainwise IP-100,2013-02-10 11:58:00,
2013-02-10 06:03:00,51.0,38.0,29.93,South,180,9.0,14.0,60,0.00,,,0.00,Rainwise IP-100,2013-02-10 12:03:00,
2013-02-10 06:08:00,52.0,38.0,29.93,South,180,12.0,20.0,59,0.00,,,0.00,Rainwise IP-100,2013-02-10 12:08:00,
2013-02-10 06:13:00,52.0,38.0,29.94,SW,225,7.0,17.0,59,0.00,,,0.00,Rainwise IP-100,2013-02-10 12:13:00,
2013-02-10 06:18:00,51.0,38.0,29.94,South,180,7.0,17.0,61,0.00,,,0.00,Rainwise IP-100,2013-02-10 12:18:00,
2013-02-10 06:23:00,51.0,37.0,29.95,South,180,7.0,14.0,59,0.00,,,0.00,Rainwise IP-100,2013-02-10 12:23:00,
2013-02-10 06:28:00,51.0,38.0,29.95,SE,135,10.0,17.0,60,0.00,,,0.00,Rainwise IP-100,2013-02-10 12:28:00,
2013-02-10 06:33:00,51.0,39.0,29.96,South,180,6.0,15.0,62,0.00,,,0.00,Rainwise IP-100,2013-02-10 12:33:00,
2013-02-10 06:38:00,51.0,38.0,29.96,South,180,9.0,10.0,61,0.00,,,0.00,Rainwise IP-100,2013-02-10 12:38:00,
2013-02-10 06:43:00,51.0,39.0,29.95,SE,135,8.0,9.0,62,0.00,,,0.00,Rainwise IP-100,2013-02-10 12:43:00,
2013-02-10 06:48:00,51.0,39.0,29.95,SSE,157,7.0,12.0,62,0.00,,,0.00,Rainwise IP-100,2013-02-10 12:48:00,
2013-02-10 06:53:00,51.0,39.0,29.96,SSW,202,5.0,13.0,62,0.00,,,0.00,Rainwise IP-100,2013-02-10 12:53:00,
2013-02-10 06:58:00,51.0,39.0,29.96,South,180,6.0,9.0,62,0.00,,,0.00,Rainwise IP-100,2013-02-10 12:58:00,
2013-02-10 07:03:00,51.0,39.0,29.97,South,180,4.0,9.0,62,0.00,,,0.00,Rainwise IP-100,2013-02-10 13:03:00,
2013-02-10 07:08:00,51.0,39.0,29.97,South,180,6.0,11.0,62,0.00,,,0.00,Rainwise IP-100,2013-02-10 13:08:00,
2013-02-10 07:13:00,51.0,38.0,29.97,SE,135,7.0,11.0,60,0.00,,,0.00,Rainwise IP-100,2013-02-10 13:13:00,
2013-02-10 07:18:00,51.0,38.0,29.97,SSE,157,7.0,11.0,60,0.00,,,0.00,Rainwise IP-100,2013-02-10 13:18:00,
2013-02-10 07:23:00,52.0,38.0,29.96,SSE,157,6.0,15.0,59,0.00,,,0.00,Rainwise IP-100,2013-02-10 13:23:00,
2013-02-10 07:28:00,52.0,38.0,29.96,SE,135,9.0,18.0,58,0.00,,,0.00,Rainwise IP-100,2013-02-10 13:28:00,
2013-02-10 07:33:00,52.0,37.0,29.96,South,180,9.0,20.0,57,0.00,,,0.00,Rainwise IP-100,2013-02-10 13:33:00,
2013-02-10 07:38:00,53.0,38.0,29.96,South,180,5.0,17.0,57,0.00,,,0.00,Rainwise IP-100,2013-02-10 13:38:00,
2013-02-10 07:43:00,53.0,37.0,29.95,SSE,157,8.0,13.0,56,0.00,,,0.00,Rainwise IP-100,2013-02-10 13:43:00,
2013-02-10 07:48:00,53.0,37.0,29.95,South,180,15.0,17.0,56,0.00,,,0.00,Rainwise IP-100,2013-02-10 13:48:00,
2013-02-10 07:53:00,53.0,37.0,29.95,SSW,202,7.0,15.0,56,0.00,,,0.00,Rainwise IP-100,2013-02-10 13:53:00,
2013-02-10 07:58:00,53.0,37.0,29.95,SE,135,6.0,19.0,54,0.00,,,0.00,Rainwise IP-100,2013-02-10 13:58:00,
2013-02-10 08:03:00,53.0,37.0,29.95,South,180,6.0,15.0,55,0.00,,,0.00,Rainwise IP-100,2013-02-10 14:03:00,
2013-02-10 08:08:00,53.0,37.0,29.95,South,180,8.0,15.0,55,0.00,,,0.00,Rainwise IP-100,2013-02-10 14:08:00,
2013-02-10 08:13:00,54.0,38.0,29.94,SW,225,6.0,15.0,54,0.00,,,0.00,Rainwise IP-100,2013-02-10 14:13:00,
2013-02-10 08:18:00,54.0,38.0,29.94,SSE,157,5.0,16.0,54,0.00,,,0.00,Rainwise IP-100,2013-02-10 14:18:00,
2013-02-10 08:23:00,54.0,38.0,29.93,SSE,157,6.0,20.0,55,0.00,,,0.00,Rainwise IP-100,2013-02-10 14:23:00,
2013-02-10 08:28:00,54.0,38.0,29.93,SE,135,6.0,14.0,55,0.00,,,0.00,Rainwise IP-100,2013-02-10 14:28:00,
2013-02-10 08:33:00,54.0,38.0,29.91,SE,135,3.0,13.0,55,0.00,,,0.00,Rainwise IP-100,2013-02-10 14:33:00,
2013-02-10 08:38:00,54.0,39.0,29.91,SSE,157,7.0,13.0,56,0.00,,,0.00,Rainwise IP-100,2013-02-10 14:38:00,
2013-02-10 08:43:00,54.0,38.0,29.90,SE,135,5.0,12.0,55,0.00,,,0.00,Rainwise IP-100,2013-02-10 14:43:00,
2013-02-10 08:48:00,54.0,38.0,29.90,SW,225,6.0,13.0,54,0.00,,,0.00,Rainwise IP-100,2013-02-10 14:48:00,
2013-02-10 08:53:00,54.0,38.0,29.90,South,180,9.0,15.0,54,0.00,,,0.00,Rainwise IP-100,2013-02-10 14:53:00,
2013-02-10 08:58:00,55.0,38.0,29.90,SSE,157,12.0,13.0,53,0.00,,,0.00,Rainwise IP-100,2013-02-10 14:58:00,
2013-02-10 09:03:00,55.0,38.0,29.90,South,180,10.0,15.0,53,0.00,,,0.00,Rainwise IP-100,2013-02-10 15:03:00,
2013-02-10 09:08:00,55.0,38.0,29.90,SSW,202,6.0,18.0,52,0.00,,,0.00,Rainwise IP-100,2013-02-10 15:08:00,
2013-02-10 09:13:00,55.0,38.0,29.90,SSW,202,7.0,17.0,53,0.00,,,0.00,Rainwise IP-100,2013-02-10 15:13:00,
2013-02-10 09:18:00,56.0,38.0,29.90,SSW,202,8.0,17.0,52,0.00,,,0.00,Rainwise IP-100,2013-02-10 15:18:00,
2013-02-10 09:23:00,56.0,38.0,29.90,South,180,6.0,17.0,51,0.00,,,0.00,Rainwise IP-100,2013-02-10 15:23:00,
2013-02-10 09:28:00,56.0,38.0,29.90,SSW,202,9.0,15.0,51,0.00,,,0.00,Rainwise IP-100,2013-02-10 15:28:00,
2013-02-10 09:33:00,56.0,38.0,29.89,South,180,10.0,21.0,51,0.00,,,0.00,Rainwise IP-100,2013-02-10 15:33:00,
2013-02-10 09:38:00,56.0,38.0,29.89,South,180,7.0,13.0,51,0.00,,,0.00,Rainwise IP-100,2013-02-10 15:38:00,
2013-02-10 09:43:00,56.0,38.0,29.89,South,180,9.0,14.0,51,0.00,,,0.00,Rainwise IP-100,2013-02-10 15:43:00,
2013-02-10 09:48:00,57.0,39.0,29.89,South,180,5.0,13.0,51,0.00,,,0.00,Rainwise IP-100,2013-02-10 15:48:00,
2013-02-10 09:53:00,57.0,39.0,29.87,South,180,9.0,13.0,51,0.00,,,0.00,Rainwise IP-100,2013-02-10 15:53:00,
2013-02-10 09:58:00,57.0,39.0,29.87,SSE,157,6.0,17.0,51,0.00,,,0.00,Rainwise IP-100,2013-02-10 15:58:00,
2013-02-10 10:03:00,57.0,39.0,29.87,SSW,202,6.0,23.0,51,0.00,,,0.00,Rainwise IP-100,2013-02-10 16:03:00,
2013-02-10 10:08:00,57.0,39.0,29.87,SSE,157,7.0,11.0,50,0.00,,,0.00,Rainwise IP-100,2013-02-10 16:08:00,
2013-02-10 10:13:00,57.0,39.0,29.86,South,180,9.0,14.0,51,0.00,,,0.00,Rainwise IP-100,2013-02-10 16:13:00,
2013-02-10 10:18:00,57.0,39.0,29.86,East,90,5.0,13.0,52,0.00,,,0.00,Rainwise IP-100,2013-02-10 16:18:00,
2013-02-10 10:23:00,57.0,39.0,29.86,South,180,9.0,15.0,51,0.00,,,0.00,Rainwise IP-100,2013-02-10 16:23:00,
2013-02-10 10:28:00,57.0,39.0,29.86,South,180,16.0,16.0,51,0.00,,,0.00,Rainwise IP-100,2013-02-10 16:28:00,
2013-02-10 10:33:00,57.0,39.0,29.86,SSE,157,13.0,17.0,51,0.00,,,0.00,Rainwise IP-100,2013-02-10 16:33:00,
2013-02-10 10:39:00,58.0,40.0,29.86,South,180,15.0,22.0,52,0.00,,,0.00,Rainwise IP-100,2013-02-10 16:39:00,
2013-02-10 10:44:00,56.0,41.0,29.86,South,180,13.0,19.0,57,0.00,,,0.00,Rainwise IP-100,2013-02-10 16:44:00,
2013-02-10 10:49:00,56.0,42.0,29.87,South,180,10.0,20.0,60,0.06,,,0.01,Rainwise IP-100,2013-02-10 16:49:00,
2013-02-10 10:55:00,55.0,43.0,29.87,SE,135,8.0,21.0,64,0.06,,,0.02,Rainwise IP-100,2013-02-10 16:55:00,
2013-02-10 11:00:00,53.0,45.0,29.89,South,180,6.0,13.0,74,0.18,,,0.05,Rainwise IP-100,2013-02-10 17:00:00,
2013-02-10 11:05:00,54.0,46.0,29.89,SSW,202,5.0,17.0,73,0.30,,,0.06,Rainwise IP-100,2013-02-10 17:05:00,
2013-02-10 11:11:00,54.0,46.0,29.88,South,180,12.0,17.0,74,0.12,,,0.07,Rainwise IP-100,2013-02-10 17:11:00,
2013-02-10 11:16:00,52.0,47.0,29.88,SE,135,13.0,22.0,82,0.24,,,0.10,Rainwise IP-100,2013-02-10 17:16:00,
2013-02-10 11:21:00,51.0,48.0,29.91,SSW,202,5.0,14.0,89,0.54,,,0.16,Rainwise IP-100,2013-02-10 17:21:00,
2013-02-10 11:26:00,50.0,47.5,29.91,SSW,202,9.0,15.0,92,0.60,,,0.20,Rainwise IP-100,2013-02-10 17:26:00,
2013-02-10 11:31:00,50.0,48.0,29.91,SSE,157,9.0,16.0,94,0.36,,,0.22,Rainwise IP-100,2013-02-10 17:31:00,
2013-02-10 11:36:00,50.0,48.0,29.91,South,180,12.0,16.0,95,0.24,,,0.24,Rainwise IP-100,2013-02-10 17:36:00,
2013-02-10 11:41:00,50.0,49.0,29.91,SSW,202,6.0,12.0,97,0.42,,,0.29,Rainwise IP-100,2013-02-10 17:41:00,
2013-02-10 11:46:00,50.0,49.0,29.91,SSW,202,10.0,15.0,97,0.60,,,0.34,Rainwise IP-100,2013-02-10 17:46:00,
2013-02-10 11:51:00,49.0,48.0,29.92,SSE,157,9.0,10.0,97,0.54,,,0.38,Rainwise IP-100,2013-02-10 17:51:00,
2013-02-10 11:56:00,49.0,48.0,29.92,South,180,5.0,12.0,97,0.42,,,0.41,Rainwise IP-100,2013-02-10 17:56:00,
2013-02-10 12:01:00,49.0,48.0,29.92,South,180,8.0,11.0,97,0.36,,,0.44,Rainwise IP-100,2013-02-10 18:01:00,
2013-02-10 12:06:00,49.0,48.0,29.92,South,180,7.0,12.0,97,0.30,,,0.46,Rainwise IP-100,2013-02-10 18:06:00,
2013-02-10 12:11:00,49.0,48.0,29.91,SSE,157,7.0,14.0,97,0.18,,,0.47,Rainwise IP-100,2013-02-10 18:11:00,
2013-02-10 12:16:00,49.0,48.0,29.91,SSE,157,7.0,12.0,97,0.18,,,0.49,Rainwise IP-100,2013-02-10 18:16:00,
2013-02-10 12:21:00,49.0,48.0,29.90,South,180,10.0,14.0,97,0.18,,,0.50,Rainwise IP-100,2013-02-10 18:21:00,
2013-02-10 12:26:00,49.0,48.0,29.90,South,180,9.0,13.0,97,0.12,,,0.51,Rainwise IP-100,2013-02-10 18:26:00,
2013-02-10 12:31:00,50.0,49.0,29.88,South,180,7.0,16.0,97,0.12,,,0.52,Rainwise IP-100,2013-02-10 18:31:00,
2013-02-10 12:36:00,50.0,49.0,29.88,SE,135,9.0,17.0,97,0.12,,,0.53,Rainwise IP-100,2013-02-10 18:36:00,
2013-02-10 12:41:00,50.0,49.0,29.82,SE,135,9.0,19.0,97,0.06,,,0.53,Rainwise IP-100,2013-02-10 18:41:00,
2013-02-10 12:46:00,50.0,49.0,29.82,SW,225,7.0,20.0,97,0.00,,,0.53,Rainwise IP-100,2013-02-10 18:46:00,
2013-02-10 12:51:00,50.0,49.0,29.83,SSE,157,6.0,14.0,97,0.00,,,0.53,Rainwise IP-100,2013-02-10 18:51:00,
2013-02-10 12:56:00,50.0,49.0,29.83,SSE,157,16.0,19.0,97,0.00,,,0.53,Rainwise IP-100,2013-02-10 18:56:00,
2013-02-10 13:01:00,51.0,50.5,29.82,South,180,9.0,16.0,97,0.00,,,0.53,Rainwise IP-100,2013-02-10 19:01:00,
2013-02-10 13:06:00,51.0,50.5,29.82,SSW,202,12.0,19.0,97,0.00,,,0.53,Rainwise IP-100,2013-02-10 19:06:00,
2013-02-10 13:11:00,51.0,50.0,29.81,SE,135,12.0,20.0,96,0.00,,,0.53,Rainwise IP-100,2013-02-10 19:11:00,
2013-02-10 13:16:00,51.0,50.0,29.81,SSW,202,7.0,19.0,96,0.00,,,0.53,Rainwise IP-100,2013-02-10 19:16:00,
2013-02-10 13:21:00,51.0,50.0,29.77,South,180,10.0,22.0,95,0.00,,,0.53,Rainwise IP-100,2013-02-10 19:21:00,
2013-02-10 13:26:00,51.0,50.0,29.77,South,180,10.0,19.0,95,0.00,,,0.53,Rainwise IP-100,2013-02-10 19:26:00,
2013-02-10 13:31:00,52.0,50.5,29.77,SE,135,9.0,23.0,95,0.00,,,0.53,Rainwise IP-100,2013-02-10 19:31:00,
2013-02-10 13:36:00,52.0,50.5,29.77,SSE,157,12.0,26.0,94,0.06,,,0.54,Rainwise IP-100,2013-02-10 19:36:00,
2013-02-10 13:41:00,52.0,50.0,29.74,South,180,24.0,26.0,93,0.06,,,0.54,Rainwise IP-100,2013-02-10 19:41:00,
2013-02-10 13:46:00,52.0,50.0,29.74,South,180,15.0,26.0,93,0.00,,,0.54,Rainwise IP-100,2013-02-10 19:46:00,
2013-02-10 13:51:00,52.0,50.0,29.73,SW,225,12.0,28.0,93,0.00,,,0.54,Rainwise IP-100,2013-02-10 19:51:00,
2013-02-10 13:56:00,52.0,50.0,29.73,South,180,13.0,32.0,93,0.00,,,0.54,Rainwise IP-100,2013-02-10 19:56:00,
2013-02-10 14:01:00,53.0,50.5,29.72,SE,135,10.0,27.0,92,0.00,,,0.54,Rainwise IP-100,2013-02-10 20:01:00,
2013-02-10 14:06:00,53.0,50.5,29.72,South,180,8.0,20.0,93,0.00,,,0.54,Rainwise IP-100,2013-02-10 20:06:00,
2013-02-10 14:11:00,53.0,50.5,29.70,South,180,10.0,20.0,92,0.00,,,0.54,Rainwise IP-100,2013-02-10 20:11:00,
2013-02-10 14:16:00,53.0,50.5,29.70,SW,225,10.0,20.0,92,0.00,,,0.54,Rainwise IP-100,2013-02-10 20:16:00,
2013-02-10 14:21:00,53.0,50.0,29.71,SE,135,10.0,17.0,91,0.00,,,0.54,Rainwise IP-100,2013-02-10 20:21:00,
2013-02-10 14:26:00,53.0,50.0,29.71,SSE,157,12.0,29.0,91,0.00,,,0.54,Rainwise IP-100,2013-02-10 20:26:00,
2013-02-10 14:31:00,53.0,50.0,29.71,SE,135,6.0,21.0,91,0.00,,,0.54,Rainwise IP-100,2013-02-10 20:31:00,
2013-02-10 14:36:00,54.0,51.0,29.71,SSE,157,7.0,17.0,91,0.00,,,0.54,Rainwise IP-100,2013-02-10 20:36:00,
2013-02-10 14:41:00,54.0,50.5,29.71,SSW,202,20.0,21.0,89,0.00,,,0.54,Rainwise IP-100,2013-02-10 20:41:00,
2013-02-10 14:46:00,54.0,50.5,29.71,SSW,202,11.0,23.0,89,0.00,,,0.54,Rainwise IP-100,2013-02-10 20:46:00,
2013-02-10 14:51:00,54.0,50.5,29.73,SW,225,11.0,22.0,89,0.00,,,0.54,Rainwise IP-100,2013-02-10 20:51:00,
2013-02-10 14:56:00,54.0,51.0,29.73,South,180,10.0,20.0,90,0.00,,,0.54,Rainwise IP-100,2013-02-10 20:56:00,
2013-02-10 15:01:00,54.0,51.0,29.73,South,180,5.0,23.0,90,0.00,,,0.54,Rainwise IP-100,2013-02-10 21:01:00,
2013-02-10 15:06:00,54.0,50.5,29.73,South,180,14.0,22.0,89,0.00,,,0.54,Rainwise IP-100,2013-02-10 21:06:00,
2013-02-10 15:11:00,54.0,50.5,29.74,SW,225,13.0,29.0,89,0.00,,,0.54,Rainwise IP-100,2013-02-10 21:11:00,
2013-02-10 15:16:00,53.0,49.0,29.74,SE,135,11.0,25.0,88,0.00,,,0.54,Rainwise IP-100,2013-02-10 21:16:00,
2013-02-10 15:21:00,53.0,50.0,29.75,South,180,12.0,22.0,89,0.00,,,0.54,Rainwise IP-100,2013-02-10 21:21:00,
2013-02-10 15:26:00,53.0,50.0,29.75,South,180,15.0,22.0,89,0.00,,,0.54,Rainwise IP-100,2013-02-10 21:26:00,
2013-02-10 15:31:00,53.0,50.0,29.76,SSW,202,10.0,26.0,89,0.00,,,0.54,Rainwise IP-100,2013-02-10 21:31:00,
2013-02-10 15:36:00,53.0,50.0,29.76,South,180,9.0,22.0,89,0.00,,,0.54,Rainwise IP-100,2013-02-10 21:36:00,
2013-02-10 15:41:00,53.0,50.0,29.76,South,180,9.0,23.0,89,0.00,,,0.54,Rainwise IP-100,2013-02-10 21:41:00,
2013-02-10 15:46:00,53.0,50.0,29.76,South,180,12.0,20.0,89,0.00,,,0.54,Rainwise IP-100,2013-02-10 21:46:00,
2013-02-10 15:51:00,54.0,50.5,29.76,SSW,202,8.0,26.0,88,0.00,,,0.54,Rainwise IP-100,2013-02-10 21:51:00,
2013-02-10 15:56:00,53.0,49.0,29.76,SSW,202,10.0,22.0,88,0.00,,,0.54,Rainwise IP-100,2013-02-10 21:56:00,
2013-02-10 16:01:00,54.0,50.5,29.75,SE,135,9.0,15.0,89,0.00,,,0.54,Rainwise IP-100,2013-02-10 22:01:00,
2013-02-10 16:06:00,54.0,50.5,29.75,South,180,10.0,19.0,88,0.00,,,0.54,Rainwise IP-100,2013-02-10 22:06:00,
2013-02-10 16:11:00,54.0,50.5,29.75,SE,135,11.0,22.0,88,0.00,,,0.54,Rainwise IP-100,2013-02-10 22:11:00,
2013-02-10 16:16:00,54.0,50.5,29.75,SSE,157,7.0,22.0,88,0.00,,,0.54,Rainwise IP-100,2013-02-10 22:16:00,
2013-02-10 16:21:00,54.0,50.5,29.74,South,180,12.0,23.0,87,0.00,,,0.54,Rainwise IP-100,2013-02-10 22:21:00,
2013-02-10 16:26:00,54.0,50.5,29.74,South,180,9.0,22.0,87,0.00,,,0.54,Rainwise IP-100,2013-02-10 22:26:00,
2013-02-10 16:31:00,54.0,50.5,29.75,South,180,13.0,21.0,87,0.00,,,0.54,Rainwise IP-100,2013-02-10 22:31:00,
2013-02-10 16:36:00,54.0,50.5,29.75,SSW,202,10.0,22.0,87,0.00,,,0.54,Rainwise IP-100,2013-02-10 22:36:00,
2013-02-10 16:41:00,54.0,50.5,29.75,South,180,8.0,15.0,87,0.00,,,0.54,Rainwise IP-100,2013-02-10 22:41:00,
2013-02-10 16:46:00,54.0,50.5,29.75,South,180,9.0,17.0,87,0.00,,,0.54,Rainwise IP-100,2013-02-10 22:46:00,
2013-02-10 16:51:00,54.0,50.0,29.73,SSE,157,13.0,23.0,86,0.00,,,0.54,Rainwise IP-100,2013-02-10 22:51:00,
2013-02-10 16:56:00,54.0,50.5,29.73,SW,225,9.0,17.0,87,0.00,,,0.54,Rainwise IP-100,2013-02-10 22:56:00,
2013-02-10 17:01:00,54.0,50.5,29.74,ESE,112,3.0,14.0,87,0.00,,,0.54,Rainwise IP-100,2013-02-10 23:01:00,
2013-02-10 17:06:00,54.0,50.0,29.74,ESE,112,4.0,19.0,86,0.00,,,0.54,Rainwise IP-100,2013-02-10 23:06:00,
2013-02-10 17:11:00,54.0,50.5,29.74,South,180,9.0,13.0,87,0.00,,,0.54,Rainwise IP-100,2013-02-10 23:11:00,
2013-02-10 17:16:00,54.0,50.5,29.74,SE,135,9.0,20.0,87,0.00,,,0.54,Rainwise IP-100,2013-02-10 23:16:00,
2013-02-10 17:21:00,54.0,50.5,29.74,SW,225,5.0,22.0,87,0.00,,,0.54,Rainwise IP-100,2013-02-10 23:21:00,
2013-02-10 17:26:00,54.0,50.5,29.74,SE,135,16.0,16.0,87,0.00,,,0.54,Rainwise IP-100,2013-02-10 23:26:00,
2013-02-10 17:31:00,54.0,50.5,29.74,SSW,202,10.0,17.0,87,0.00,,,0.54,Rainwise IP-100,2013-02-10 23:31:00,
2013-02-10 17:36:00,54.0,50.5,29.74,South,180,8.0,17.0,87,0.00,,,0.54,Rainwise IP-100,2013-02-10 23:36:00,
2013-02-10 17:41:00,54.0,50.5,29.74,South,180,12.0,17.0,87,0.00,,,0.54,Rainwise IP-100,2013-02-10 23:41:00,
2013-02-10 17:46:00,54.0,50.5,29.74,South,180,8.0,17.0,88,0.00,,,0.54,Rainwise IP-100,2013-02-10 23:46:00,
2013-02-10 17:51:00,54.0,50.5,29.74,South,180,11.0,17.0,88,0.00,,,0.54,Rainwise IP-100,2013-02-10 23:51:00,
2013-02-10 17:56:00,54.0,50.5,29.74,South,180,8.0,14.0,88,0.00,,,0.54,Rainwise IP-100,2013-02-10 23:56:00,
2013-02-10 18:01:00,54.0,50.5,29.74,SW,225,6.0,16.0,89,0.00,,,0.54,Rainwise IP-100,2013-02-11 00:01:00,
2013-02-10 18:06:00,54.0,50.5,29.74,SSE,157,7.0,13.0,89,0.00,,,0.54,Rainwise IP-100,2013-02-11 00:06:00,
2013-02-10 18:11:00,54.0,50.5,29.75,South,180,8.0,16.0,89,0.00,,,0.54,Rainwise IP-100,2013-02-11 00:11:00,
2013-02-10 18:16:00,54.0,50.5,29.75,SSW,202,9.0,14.0,89,0.00,,,0.54,Rainwise IP-100,2013-02-11 00:16:00,
2013-02-10 18:21:00,54.0,50.5,29.77,SSE,157,13.0,16.0,89,0.00,,,0.54,Rainwise IP-100,2013-02-11 00:21:00,
2013-02-10 18:26:00,54.0,51.0,29.77,SW,225,5.0,16.0,90,0.00,,,0.54,Rainwise IP-100,2013-02-11 00:26:00,
2013-02-10 18:31:00,54.0,51.0,29.77,SW,225,7.0,14.0,90,0.00,,,0.54,Rainwise IP-100,2013-02-11 00:31:00,
2013-02-10 18:36:00,54.0,51.0,29.77,South,180,7.0,12.0,90,0.00,,,0.54,Rainwise IP-100,2013-02-11 00:36:00,
2013-02-10 18:41:00,54.0,51.0,29.76,South,180,6.0,13.0,90,0.00,,,0.54,Rainwise IP-100,2013-02-11 00:41:00,
2013-02-10 18:46:00,55.0,53.0,29.76,SSW,202,7.0,15.0,90,0.00,,,0.54,Rainwise IP-100,2013-02-11 00:46:00,
2013-02-10 18:51:00,55.0,53.0,29.76,South,180,7.0,12.0,90,0.00,,,0.54,Rainwise IP-100,2013-02-11 00:51:00,
2013-02-10 18:56:00,54.0,51.0,29.76,South,180,8.0,12.0,90,0.00,,,0.54,Rainwise IP-100,2013-02-11 00:56:00,
2013-02-10 19:01:00,54.0,51.0,29.77,SW,225,5.0,12.0,90,0.00,,,0.54,Rainwise IP-100,2013-02-11 01:01:00,
2013-02-10 19:06:00,54.0,51.0,29.77,SW,225,6.0,17.0,91,0.00,,,0.54,Rainwise IP-100,2013-02-11 01:06:00,
2013-02-10 19:11:00,54.0,51.0,29.76,South,180,4.0,10.0,91,0.00,,,0.54,Rainwise IP-100,2013-02-11 01:11:00,
2013-02-10 19:16:00,54.0,51.0,29.76,SSW,202,7.0,9.0,91,0.00,,,0.54,Rainwise IP-100,2013-02-11 01:16:00,
2013-02-10 19:21:00,54.0,51.0,29.76,South,180,6.0,12.0,91,0.00,,,0.54,Rainwise IP-100,2013-02-11 01:21:00,
2013-02-10 19:26:00,54.0,51.0,29.76,SE,135,5.0,12.0,91,0.00,,,0.54,Rainwise IP-100,2013-02-11 01:26:00,
2013-02-10 19:31:00,54.0,51.0,29.77,SSW,202,7.0,13.0,91,0.00,,,0.54,Rainwise IP-100,2013-02-11 01:31:00,
2013-02-10 19:36:00,54.0,51.0,29.77,South,180,4.0,12.0,91,0.00,,,0.54,Rainwise IP-100,2013-02-11 01:36:00,
2013-02-10 19:42:00,54.0,52.0,29.77,South,180,7.0,7.0,92,0.00,,,0.54,Rainwise IP-100,2013-02-11 01:42:00,
2013-02-10 19:47:00,54.0,52.0,29.77,SSW,202,5.0,10.0,92,0.00,,,0.54,Rainwise IP-100,2013-02-11 01:47:00,
2013-02-10 19:52:00,54.0,52.0,29.77,South,180,5.0,8.0,92,0.00,,,0.54,Rainwise IP-100,2013-02-11 01:52:00,
2013-02-10 19:57:00,54.0,52.0,29.77,SSW,202,6.0,9.0,92,0.00,,,0.54,Rainwise IP-100,2013-02-11 01:57:00,
2013-02-10 20:02:00,54.0,52.0,29.76,South,180,5.0,10.0,92,0.00,,,0.54,Rainwise IP-100,2013-02-11 02:02:00,
2013-02-10 20:07:00,54.0,52.0,29.76,South,180,6.0,9.0,92,0.00,,,0.54,Rainwise IP-100,2013-02-11 02:07:00,
2013-02-10 20:12:00,55.0,53.0,29.77,South,180,7.0,9.0,92,0.00,,,0.54,Rainwise IP-100,2013-02-11 02:12:00,
2013-02-10 20:17:00,55.0,53.0,29.77,SW,225,4.0,12.0,92,0.00,,,0.54,Rainwise IP-100,2013-02-11 02:17:00,
2013-02-10 20:22:00,55.0,53.0,29.77,SW,225,9.0,11.0,92,0.00,,,0.54,Rainwise IP-100,2013-02-11 02:22:00,
2013-02-10 20:27:00,55.0,53.0,29.77,South,180,9.0,12.0,92,0.00,,,0.54,Rainwise IP-100,2013-02-11 02:27:00,
2013-02-10 20:32:00,55.0,53.0,29.77,SW,225,6.0,12.0,92,0.00,,,0.54,Rainwise IP-100,2013-02-11 02:32:00,
2013-02-10 20:37:00,55.0,53.0,29.77,SW,225,6.0,15.0,92,0.00,,,0.54,Rainwise IP-100,2013-02-11 02:37:00,
2013-02-10 20:42:00,55.0,53.0,29.77,SW,225,8.0,15.0,92,0.00,,,0.54,Rainwise IP-100,2013-02-11 02:42:00,
2013-02-10 20:47:00,55.0,53.0,29.77,SW,225,11.0,12.0,92,0.00,,,0.54,Rainwise IP-100,2013-02-11 02:47:00,
2013-02-10 20:52:00,55.0,53.0,29.77,SW,225,6.0,15.0,92,0.00,,,0.54,Rainwise IP-100,2013-02-11 02:52:00,
2013-02-10 20:57:00,56.0,53.5,29.77,SW,225,7.0,11.0,92,0.00,,,0.54,Rainwise IP-100,2013-02-11 02:57:00,
2013-02-10 21:02:00,56.0,53.5,29.78,SSW,202,3.0,13.0,92,0.00,,,0.54,Rainwise IP-100,2013-02-11 03:02:00,
2013-02-10 21:07:00,56.0,53.5,29.78,SW,225,7.0,14.0,92,0.00,,,0.54,Rainwise IP-100,2013-02-11 03:07:00,
2013-02-10 21:12:00,56.0,53.5,29.78,SSW,202,5.0,12.0,92,0.00,,,0.54,Rainwise IP-100,2013-02-11 03:12:00,
2013-02-10 21:17:00,56.0,53.5,29.78,SW,225,4.0,10.0,92,0.00,,,0.54,Rainwise IP-100,2013-02-11 03:17:00,
2013-02-10 21:22:00,56.0,53.5,29.79,South,180,7.0,10.0,92,0.00,,,0.54,Rainwise IP-100,2013-02-11 03:22:00,
2013-02-10 21:27:00,56.0,53.5,29.79,SSE,157,7.0,10.0,92,0.00,,,0.54,Rainwise IP-100,2013-02-11 03:27:00,
2013-02-10 21:32:00,56.0,53.5,29.79,South,180,6.0,12.0,92,0.00,,,0.54,Rainwise IP-100,2013-02-11 03:32:00,
2013-02-10 21:37:00,56.0,53.5,29.79,South,180,8.0,14.0,92,0.00,,,0.54,Rainwise IP-100,2013-02-11 03:37:00,
2013-02-10 21:42:00,56.0,53.5,29.79,SW,225,3.0,13.0,92,0.00,,,0.54,Rainwise IP-100,2013-02-11 03:42:00,
2013-02-10 21:47:00,56.0,53.5,29.79,WSW,247,3.0,9.0,92,0.00,,,0.54,Rainwise IP-100,2013-02-11 03:47:00,
2013-02-10 21:52:00,56.0,53.5,29.79,WSW,247,8.0,13.0,92,0.00,,,0.54,Rainwise IP-100,2013-02-11 03:52:00,
2013-02-10 21:57:00,56.0,53.5,29.79,SW,225,5.0,10.0,92,0.00,,,0.54,Rainwise IP-100,2013-02-11 03:57:00,
2013-02-10 22:02:00,56.0,53.5,29.79,SSE,157,8.0,12.0,92,0.00,,,0.54,Rainwise IP-100,2013-02-11 04:02:00,
2013-02-10 22:07:00,56.0,53.5,29.79,SW,225,6.0,13.0,92,0.00,,,0.54,Rainwise IP-100,2013-02-11 04:07:00,
2013-02-10 22:12:00,56.0,54.0,29.79,SW,225,9.0,13.0,93,0.00,,,0.54,Rainwise IP-100,2013-02-11 04:12:00,
2013-02-10 22:17:00,56.0,54.0,29.79,South,180,9.0,11.0,93,0.00,,,0.54,Rainwise IP-100,2013-02-11 04:17:00,
2013-02-10 22:22:00,56.0,54.0,29.79,SW,225,9.0,13.0,93,0.00,,,0.54,Rainwise IP-100,2013-02-11 04:22:00,
2013-02-10 22:27:00,56.0,54.0,29.79,SSE,157,6.0,13.0,93,0.00,,,0.54,Rainwise IP-100,2013-02-11 04:27:00,
2013-02-10 22:32:00,56.0,54.0,29.79,SSW,202,10.0,13.0,93,0.00,,,0.54,Rainwise IP-100,2013-02-11 04:32:00,
2013-02-10 22:37:00,56.0,54.0,29.79,South,180,3.0,12.0,93,0.00,,,0.54,Rainwise IP-100,2013-02-11 04:37:00,
2013-02-10 22:42:00,56.0,54.0,29.80,SSW,202,5.0,11.0,93,0.00,,,0.54,Rainwise IP-100,2013-02-11 04:42:00,
2013-02-10 22:47:00,56.0,54.0,29.80,SSW,202,6.0,12.0,93,0.00,,,0.54,Rainwise IP-100,2013-02-11 04:47:00,
2013-02-10 22:52:00,56.0,54.0,29.79,SSW,202,6.0,11.0,93,0.00,,,0.54,Rainwise IP-100,2013-02-11 04:52:00,
2013-02-10 22:57:00,56.0,54.0,29.79,SSW,202,11.0,11.0,93,0.00,,,0.54,Rainwise IP-100,2013-02-11 04:57:00,
2013-02-10 23:00:00,57.0,55.0,29.80,South,180,5.0,12.0,94,0.00,,,0.54,Rainwise IP-100,2013-02-11 05:00:00,
2013-02-10 23:05:00,57.0,55.0,29.80,SSW,202,6.0,15.0,94,0.00,,,0.54,Rainwise IP-100,2013-02-11 05:05:00,
2013-02-10 23:10:00,57.0,55.0,29.80,SW,225,7.0,14.0,93,0.00,,,0.54,Rainwise IP-100,2013-02-11 05:10:00,
2013-02-10 23:15:00,57.0,55.0,29.80,South,180,7.0,12.0,93,0.00,,,0.54,Rainwise IP-100,2013-02-11 05:15:00,
2013-02-10 23:20:00,57.0,55.0,29.80,SW,225,9.0,11.0,93,0.00,,,0.54,Rainwise IP-100,2013-02-11 05:20:00,
2013-02-10 23:25:00,57.0,54.5,29.81,SW,225,7.0,13.0,92,0.00,,,0.54,Rainwise IP-100,2013-02-11 05:25:00,
2013-02-10 23:30:00,57.0,54.5,29.81,WSW,247,6.0,10.0,92,0.00,,,0.54,Rainwise IP-100,2013-02-11 05:30:00,
2013-02-10 23:35:00,57.0,54.5,29.81,SW,225,9.0,19.0,92,0.00,,,0.54,Rainwise IP-100,2013-02-11 05:35:00,
2013-02-10 23:40:00,57.0,54.5,29.82,West,270,3.0,9.0,92,0.00,,,0.54,Rainwise IP-100,2013-02-11 05:40:00,
2013-02-10 23:45:00,57.0,55.0,29.82,SSE,157,4.0,10.0,93,0.00,,,0.54,Rainwise IP-100,2013-02-11 05:45:00,
2013-02-10 23:50:00,57.0,55.0,29.82,SW,225,3.0,12.0,94,0.00,,,0.54,Rainwise IP-100,2013-02-11 05:50:00,
2013-02-10 23:55:00,57.0,55.0,29.82,SW,225,7.0,12.0,94,0.00,,,0.54,Rainwise IP-100,2013-02-11 05:55:00,